Thomas Meier

Olheiro-Chefe - Köln
4 Abr 2027
Domingo
Processo

Personalidade

Adaptabilidade (18) Ambição (12) Controvérsia (8) Lealdade (2) Pressão (19) Profissionalismo (2) Espírito Esportivo (12) Temperamento (16)

Perfil

Estilo de Treinamento Democrático
Licença Continental B
Determinação 5
Gestão de Pessoas 9
Motivação 14
Disciplina 5
Satisfação no Trabalho
50%
Fadiga
0%
Função Olheiro-Chefe
Salário 28.4K p/s
Contrato 14.03.2028

Desempenho

Comportamento Normal
Eficácia do Treinamento
24%
Desenvolvimento do Jogador
65%
Prevenção de Lesões
50%
Implementação Tática
25%

Eventos Recentes

Avaliou um jogador agora
Participou de uma reunião de recrutamento agora
Recomendou um alvo de transferência agora
Participou de uma reunião de recrutamento agora
Avaliou um jogador agora
Avaliou um jogador agora
Avaliou um jogador agora
Avaliou um jogador 7d atrás

Monitorando agora

194
Jogador Clube Status Habilidade Confiança Observado Última observação Último voto
Axel Openda KV Oostende Ativo 136 / 134 40% 4 03.04.2027 -
Luís Esteves Atlas Ativo 132 / 136 40% 5 03.04.2027 -
Álvaro Angulo Pumas UNAM Ativo 118 / 140 40% 1 01.04.2027 -
Omar Campos Cruz Azul Ativo 122 / 115 40% 1 01.04.2027 -
Gabriel Sara Galatasaray Ativo 141 / 126 40% 2 31.03.2027 -
Bryan González Guadalajara Ativo 125 / 140 40% 1 31.03.2027 -
Mathias Pereira Lage St. Pauli Ativo 125 / 132 40% 1 31.03.2027 -
Martinelli Fluminense Ativo 133 / 147 40% 1 31.03.2027 -
Víctor Guzmán Monterrey Ativo 135 / 141 40% 1 31.03.2027 -
Álvaro Mantilla Racing Santander Ativo 130 / 130 40% 1 31.03.2027 -
Eliás Montiel Pachuca Ativo 133 / 125 40% 1 29.03.2027 -
Jadsom Al Wahda Ativo 136 / 132 40% 1 29.03.2027 -
Facundo Garcés Alavés Ativo 136 / 124 40% 2 28.03.2027 -
Stav Lemkin Twente Ativo 132 / 126 40% 2 28.03.2027 -
Agustín Palavecino Cruz Azul Ativo 153 / 124 40% 4 26.03.2027 -
Carlos Fernández Oviedo Ativo 127 / 119 40% 1 26.03.2027 -
Sandro Las Palmas Ativo 140 / 141 40% 3 24.03.2027 -
Ramón Juárez Club America Ativo 147 / 140 40% 2 23.03.2027 -
Tim Jabol-Folcarelli Trabzonspor Ativo 131 / 124 40% 1 23.03.2027 -
Munir Albacete Ativo 137 / 127 40% 1 23.03.2027 -
Jason Al-Fayha Ativo 115 / 121 40% 1 23.03.2027 -
Soufiane Rahimi Al Ain Ativo 142 / 142 40% 2 22.03.2027 -
Juan Pablo Domínguez Leon Ativo 126 / 135 40% 1 22.03.2027 -
Stiven Shpendi Empoli Ativo 118 / 119 40% 1 22.03.2027 -
Sambou Soumano FC Lorient Ativo 122 / 134 40% 1 22.03.2027 -
Tiago Djaló Besiktas Ativo 118 / 143 40% 1 20.03.2027 -
Hércules Fluminense Ativo 124 / 124 40% 1 20.03.2027 -
Diego Costa Krasnodar Ativo 135 / 129 40% 1 19.03.2027 -
Festy Ebosele Basaksehir Ativo 138 / 125 40% 1 18.03.2027 -
Mahamadou Doumbia Al-Ittihad Ativo 122 / 146 40% 4 17.03.2027 -
Flavius Daniliuc Basel Ativo 137 / 126 40% 2 17.03.2027 -
Helinho Toluca Ativo 120 / 132 40% 5 16.03.2027 -
Rafik Guitane Estoril Praia Ativo 136 / 130 40% 1 16.03.2027 -
Alessandro Bianco Modena Ativo 137 / 124 40% 1 16.03.2027 -
Danilo Botafogo Ativo 130 / 148 40% 1 16.03.2027 -
Óliver Monterrey Ativo 148 / 129 40% 3 14.03.2027 -
Arsenii Batahov Trabzonspor Ativo 125 / 144 40% 1 14.03.2027 -
Aiham Ousou Charleroi Ativo 125 / 135 40% 1 14.03.2027 -
José Paradela Cruz Azul Ativo 134 / 149 40% 4 12.03.2027 -
José Arnáiz Granada Ativo 139 / 124 40% 3 11.03.2027 -
Isi Palazón Rayo Vallecano Ativo 147 / 142 40% 1 11.03.2027 -
Morgan Whittaker Middlesbrough Ativo 139 / 128 40% 1 09.03.2027 -
Jean-Luc Dompé Konyaspor Ativo 141 / 113 40% 1 09.03.2027 -
Christian Vega Veracruz Ativo 128 / 114 40% 1 08.03.2027 -
Christian Carracedo Córdoba Ativo 123 / 125 40% 1 07.03.2027 -
Figueiredo Alverca Ativo 123 / 121 40% 1 07.03.2027 -
Myron van Brederode KV Mechelen Ativo 129 / 124 40% 1 07.03.2027 -
Lukáš Provod Slavia Prague Ativo 134 / 157 40% 2 05.03.2027 -
Patrik Wålemark Lech Ativo 142 / 111 40% 1 04.03.2027 -
Achraf Bencharki Al Ahly Ativo 117 / 125 40% 1 04.03.2027 -
Metinho Basel Ativo 127 / 131 40% 2 03.03.2027 -
Marquinhos Spartak Moscow Ativo 141 / 135 40% 3 03.03.2027 -
Nacer Tielemans Mouscron Ativo 139 / 136 40% 1 03.03.2027 -
Brian Rodríguez Club America Ativo 120 / 123 40% 1 03.03.2027 -
Tamble Monteiro Rio Ave Ativo 118 / 113 40% 1 02.03.2027 -
Cristian Shpendi Cesena Ativo 134 / 129 40% 1 02.03.2027 -
Jordi Cortizo Leon Ativo 121 / 136 40% 3 27.02.2027 -
Luciano Gondou CSKA Moscow Ativo 116 / 115 40% 1 26.02.2027 -
Nazar Voloshyn Dynamo Kyiv Ativo 146 / 138 40% 3 25.02.2027 -
Malcom Al Jazira Ativo 156 / 154 40% 1 24.02.2027 -
Nemanja Radonjić Crvena Zvezda Ativo 134 / 135 40% 2 23.02.2027 -
Haissem Hassan Bloemfontein Celtic Ativo 131 / 128 40% 2 22.02.2027 -
Luka Kulenović Heracles Ativo 113 / 103 40% 1 21.02.2027 -
Allahyar Sayyadmanesh Lech Ativo 124 / 130 40% 1 21.02.2027 -
Abdelkahar Kadri KAA Gent Ativo 133 / 129 40% 1 21.02.2027 -
Sebastián Córdova Pumas UNAM Ativo 134 / 143 40% 2 18.02.2027 -
Adriano Bertaccini Anderlecht Ativo 127 / 118 40% 1 18.02.2027 -
Yanis Begraoui Estoril Praia Ativo 134 / 143 40% 1 18.02.2027 -
Tyrell Malacia Leicester City Ativo 142 / 134 40% 1 17.02.2027 -
Alexis Vega Toluca Ativo 141 / 139 40% 9 15.02.2027 -
Gerardo Arteaga Monterrey Ativo 120 / 132 40% 1 15.02.2027 -
Jeremy Toljan Levante Ativo 142 / 141 40% 1 13.02.2027 -
Adama Traoré Deportivo La Coruña Ativo 140 / 139 40% 1 11.02.2027 -
Bernardo TSG Hoffenheim Ativo 135 / 139 40% 1 10.02.2027 -
Carlos Rodríguez Cruz Azul Ativo 143 / 147 40% 2 09.02.2027 -
Yorbe Vertessen Red Bull Salzburg Ativo 130 / 128 40% 2 07.02.2027 -
Efraín Álvarez Guadalajara Ativo 134 / 125 40% 1 06.02.2027 -
Jesus Sinisterra Sevilla Ativo 137 / 141 40% 1 06.02.2027 -
Ilay Camara Anderlecht Ativo 133 / 122 40% 1 06.02.2027 -
Lucas Piton Vasco da Gama Ativo 115 / 119 40% 2 05.02.2027 -
Sampson Dweh Viktoria Plzen Ativo 152 / 125 40% 1 05.02.2027 -
Ismael Díaz Leon Ativo 144 / 116 40% 1 04.02.2027 -
Marcel Ruiz Toluca Ativo 156 / 145 40% 3 02.02.2027 -
Marco Asensio Fenerbahce Ativo 155 / 147 40% 2 02.02.2027 -
Freddie Potts Club Brugge Ativo 125 / 132 40% 1 31.01.2027 -
Marlon Gomes Shakhtar Ativo 124 / 132 40% 2 29.01.2027 -
Sébastien Durand Tours Ativo 132 / 145 40% 1 29.01.2027 -
Hidemasa Morita Hull City Ativo 138 / 148 40% 1 26.01.2027 -
Timi Max Elšnik Crvena Zvezda Ativo 115 / 137 40% 1 24.01.2027 -
Lukas Klostermann RB Leipzig Ativo 136 / 147 40% 1 23.01.2027 -
Hwang Hee-Chan Wolverhampton Ativo 139 / 127 40% 2 22.01.2027 -
Esequiel Barco Spartak Moscow Ativo 153 / 140 40% 1 22.01.2027 -
Caspar Jander Southampton Ativo 121 / 125 40% 1 21.01.2027 -
Bruno Gomes Internacional Ativo 125 / 129 40% 1 20.01.2027 -
Sondre Langås Derby County Ativo 124 / 134 40% 1 17.01.2027 -
Marcus Holmgren Pedersen Olympiacos Ativo 119 / 117 40% 2 15.01.2027 -
Julen Agirrezabala Betis Relatório pronto 140 / 141 66% 1 11.01.2027 Mais informações
Nicolás Fernández Mercau New York City Relatório pronto 134 / 134 67% 1 01.01.2027 Aprovar
Luiz Henrique Zenit Perdido 142 / 143 68% 1 01.01.2027 -
Efraín Álvarez Guadalajara Perdido 133 / 129 40% 1 01.01.2027 -
Andrin Hunziker St. Gallen Perdido 114 / 122 40% 1 01.01.2027 -
Oleh Ocheretko Shakhtar Ativo 120 / 118 40% 1 31.12.2026 -
Ansu Fati Monaco Ativo 134 / 135 40% 10 30.12.2026 -
Aitor Ruibal Betis Ativo 145 / 134 40% 1 30.12.2026 -
Carl Rushworth Coventry City Ativo 137 / 136 40% 3 29.12.2026 -
Gonzalo Crettaz NEC Ativo 122 / 130 40% 2 29.12.2026 -
Philippe Keny Zurich Ativo 120 / 127 40% 4 28.12.2026 -
Brayan León Mamelodi Sundowns Ativo 120 / 104 40% 1 28.12.2026 -
Luka Jović AEK Perdido 134 / 127 40% 5 26.12.2026 -
Boulaye Dia Lazio Ativo 146 / 144 40% 5 26.12.2026 -
Ivan Toney Al-Ahli Perdido 148 / 144 40% 11 25.12.2026 -
Alexey Miranchuk Newcastle United Ativo 136 / 148 40% 9 25.12.2026 -
Hany Mukhtar Hamburger SV Ativo 148 / 131 40% 10 24.12.2026 -
Michy Fellaini KV Oostende Ativo 136 / 136 40% 9 24.12.2026 -
José Manuel López Palmeiras Ativo 141 / 126 40% 2 23.12.2026 -
Lazar Carević Famalicao Ativo 125 / 135 40% 1 22.12.2026 -
George Wickens Lincoln City Ativo 117 / 106 40% 1 22.12.2026 -
Gedson Fernandes Spartak Moscow Ativo 130 / 140 40% 1 22.12.2026 -
Ángel Correa River Plate Perdido 141 / 153 40% 12 19.12.2026 -
Gonzalo Plata Dinamo Moscow Ativo 140 / 123 40% 5 18.12.2026 -
Jamie Cumming Oxford United Ativo 128 / 128 40% 2 17.12.2026 -
Mio Backhaus SC Freiburg Ativo 122 / 133 40% 1 17.12.2026 -
Ilyas Chouaref Sion Ativo 130 / 113 40% 1 13.12.2026 -
Andreas Jungdal Westerlo Ativo 125 / 124 40% 2 09.12.2026 -
Justin Hammel Grasshopper Ativo 112 / 128 40% 1 09.12.2026 -
Ousmane Camara Castellón Ativo 129 / 122 40% 1 07.12.2026 -
Sem Westerveld Zaragoza Ativo 115 / 108 40% 2 01.12.2026 -
Niklas Steffen Thun Ativo 122 / 115 40% 1 30.11.2026 -
Matheus Mendes Alverca Ativo 124 / 121 40% 1 30.11.2026 -
Anthony Racioppi Sion Ativo 127 / 128 40% 3 29.11.2026 -
Oleksandr Saputin Zorya Ativo 131 / 101 40% 1 26.11.2026 -
Leo Román Deportivo La Coruña Ativo 150 / 152 40% 1 26.11.2026 -
Florián Monzón Atlas Ativo 122 / 127 40% 1 25.11.2026 -
Igor Nikić Mirandés Ativo 112 / 127 40% 1 24.11.2026 -
Ramiro Ruiz Rodríguez Atlético Tucumán Ativo 104 / 103 40% 1 22.11.2026 -
Mateo Cassierra Atlético Mineiro Ativo 150 / 141 40% 1 20.11.2026 -
Karl Hein Werder Bremen Ativo 139 / 139 40% 2 19.11.2026 -
Hugo Souza Corinthians Ativo 153 / 139 40% 1 19.11.2026 -
Ruslan Neshcheret Dynamo Kyiv Ativo 107 / 112 40% 1 18.11.2026 -
Jason Januzaj Mouscron Ativo 146 / 135 40% 4 16.11.2026 -
Jonas Wind Braga Ativo 136 / 133 40% 5 15.11.2026 -
Marvin Keller Young Boys Perdido 139 / 145 40% 3 14.11.2026 -
Pascal Loretz Luzern Ativo 120 / 116 40% 2 14.11.2026 -
Nahuel Galardi Maipú Ativo 96 / 110 40% 1 12.11.2026 -
Gabriel Brazão Santos Ativo 117 / 116 40% 1 12.11.2026 -
Guilherme Fernandes Córdoba Ativo 134 / 122 40% 1 06.11.2026 -
Iván Martín Racing Club Ativo 134 / 160 40% 1 05.11.2026 -
Kevin Lomónaco Independiente Ativo 145 / 129 40% 1 05.11.2026 -
Santiago Giménez AC Milan Ativo 145 / 144 40% 1 02.11.2026 -
Hugo Duro Valencia Ativo 134 / 135 40% 2 31.10.2026 -
Ben Voll St. Pauli Ativo 117 / 114 40% 1 31.10.2026 -
Lucas Lavagnino Valladolid Ativo 104 / 121 40% 1 26.10.2026 -
Rome-Jayden Owusu-Oduro AZ Ativo 138 / 128 40% 1 26.10.2026 -
Anthony Patterson Wrexham Ativo 129 / 120 40% 3 24.10.2026 -
Luiz Júnior Villarreal Ativo 151 / 146 40% 2 22.10.2026 -
Dani Raba Valencia Ativo 129 / 128 40% 1 22.10.2026 -
Wesley Saïd RC Lens Ativo 134 / 127 40% 1 12.10.2026 -
Jonmi Magunagoitia Eibar Ativo 131 / 125 40% 2 11.10.2026 -
Kaio Jorge Cruzeiro Ativo 127 / 156 40% 4 07.10.2026 -
Carlos Vinícius Grêmio Ativo 122 / 141 40% 3 07.10.2026 -
Romain Del Castillo Stade Brestois Ativo 127 / 145 40% 2 03.10.2026 -
Yuma Suzuki Kashima Antlers Ativo 126 / 140 40% 1 03.10.2026 -
Felipe Parra Envigado Ativo 114 / 106 40% 1 02.10.2026 -
Kazuki Fujita Avispa Fukuoka Ativo 123 / 124 40% 1 02.10.2026 -
Folarin Balogun Monaco Ativo 148 / 138 40% 1 28.09.2026 -
Enzo Vázquez Central Norte Ativo 104 / 111 40% 1 28.09.2026 -
Axel Alderweireld KV Oostende Ativo 146 / 140 40% 1 27.09.2026 -
Cesar Corona Veracruz Ativo 123 / 130 40% 6 25.09.2026 -
Jonas Urbig Bayern Munich Ativo 127 / 150 40% 1 25.09.2026 -
Patrick Schulte Columbus Crew Ativo 131 / 121 40% 1 25.09.2026 -
Fisnik Asllani TSG Hoffenheim Ativo 141 / 140 40% 1 25.09.2026 -
Leandro Trossard Besiktas Ativo 141 / 170 40% 4 24.09.2026 -
Christian Früchtl Red Bull Salzburg Ativo 127 / 114 40% 1 23.09.2026 -
Che Adams Torino Ativo 136 / 142 40% 2 21.09.2026 -
James Trafford Leeds United Ativo 139 / 136 40% 2 18.09.2026 -
Musa Barrow Al-Khaleej Ativo 131 / 129 40% 1 18.09.2026 -
Luciano Jachfe Nueva Chicago Ativo 114 / 105 40% 1 17.09.2026 -
Felipe Zenobio Tigre Ativo 137 / 122 40% 1 12.09.2026 -
Giovanni Simeone Torino Ativo 127 / 141 40% 1 10.09.2026 -
Jean-Luc Morin Tours Ativo 135 / 151 40% 2 09.09.2026 Mais informações
Chris Brady Chicago Fire Ativo 143 / 124 40% 1 09.09.2026 -
Daniel Antosch Altach Ativo 80 / 99 40% 1 08.09.2026 -
Youssef En-Nesyri Al-Ittihad Ativo 130 / 127 40% 1 04.09.2026 -
Leo Ceara Kashima Antlers Ativo 126 / 144 40% 1 30.08.2026 -
Paulinho Palmeiras Ativo 124 / 123 40% 1 29.08.2026 -
Denis Bouanga Los Angeles Football Club Ativo 142 / 129 40% 1 26.08.2026 -
Bendegúz Bolla Rapid Wien Ativo 126 / 117 40% 2 09.08.2026 -
Diego Lainez Tigres Ativo 111 / 134 40% 1 09.08.2026 -
Isaac Schmidt Young Boys Ativo 116 / 136 40% 1 08.08.2026 -
Armin Gigović Young Boys Ativo 126 / 123 40% 1 08.08.2026 -
Seedy Jatta Sturm Graz Ativo 112 / 127 40% 1 07.08.2026 -
David Junuzovic Mattersburg Ativo 118 / 128 40% 1 02.08.2026 -
Tim Lemperle TSG Hoffenheim Ativo 139 / 147 40% 1 02.08.2026 -
Alan Velasco Boca Juniors Ativo 130 / 124 40% 1 02.08.2026 -